This demonstration page uses our WeatherBlox Daily Observations layout. Learn more.

Left ArrowRight Arrow

38.88101, -77.10428

Hourly Observations for February 21, 2021

Temp ( °F °C ) Dew Point ( °F °C ) Humidity (%) Winds ( mph kmh ) Pressure ( in mb ) Visibility ( mi km ) Precip ( " mm )
12:52 am 00:52 Mostly Clear 26 -3.3 10 -12.2 51 51 NW 7 11 30.51 1033 10 16 0.00 0.00
1:52 am 01:52 Partly Cloudy 25 -3.9 11 -11.7 55 55 NW 7 11 30.53 1034 10 16 0.00 0.00
2:52 am 02:52 Clear 26 -3.3 11 -11.7 53 53 WNW 8 13 30.54 1034 10 16 0.00 0.00
3:52 am 03:52 Partly Cloudy 26 -3.3 11 -11.7 53 53 NW 10 17 30.54 1034 10 16 0.00 0.00
4:52 am 04:52 Mostly Clear 25 -3.9 11 -11.7 55 55 NW 8 13 30.56 1035 10 16 0.00 0.00
5:52 am 05:52 Mostly Cloudy 25 -3.9 11 -11.7 55 55 NW 13 20 30.58 1035 10 16 0.00 0.00
6:52 am 06:52 Mostly Sunny 25 -3.9 11 -11.7 55 55 WNW 7 11 30.60 1036 10 16 0.00 0.00
7:52 am 07:52 Mostly Sunny 27 -2.8 11 -11.7 51 51 VRB 3 6 30.61 1037 10 16 0.00 0.00
8:52 am 08:52 Sunny 30 -1.1 11 -11.7 45 45 NW 8 13 30.64 1038 10 16 0.00 0.00
9:52 am 09:52 Sunny 33 0.6 12 -11.1 42 42 N 8 13 30.65 1038 10 16 0.00 0.00
10:52 am 10:52 Sunny 34 1.1 13 -10.6 42 42 N 7 11 30.63 1037 10 16 0.00 0.00
11:52 am 11:52 Mostly Sunny 36 2.2 14 -10 40 40 VRB 3 6 30.62 1037 10 16 0.00 0.00
12:52 pm 12:52 Mostly Sunny 36 2.2 13 -10.6 39 39 SE 6 9 30.60 1036 10 16 0.00 0.00
1:52 pm 13:52 Mostly Sunny 37 2.8 12 -11.1 36 36 ESE 5 7 30.56 1035 10 16 0.00 0.00
2:52 pm 14:52 Mostly Cloudy 38 3.3 14 -10 37 37 E 3 6 30.55 1035 10 16 0.00 0.00
3:52 pm 15:52 Mostly Cloudy 38 3.3 14 -10 37 37 S 7 11 30.53 1034 10 16 0.00 0.00
4:52 pm 16:52 Mostly Cloudy 37 2.8 13 -10.6 37 37 S 8 13 30.52 1033 10 16 0.00 0.00
5:52 pm 17:52 Mostly Cloudy 36 2.2 16 -8.9 44 44 S 7 11 30.51 1033 10 16 0.00 0.00
6:52 pm 18:52 Cloudy 35 1.7 13 -10.6 40 40 S 6 9 30.52 1033 10 16 0.00 0.00
7:52 pm 19:52 Cloudy 34 1.1 19 -7.2 54 54 SE 7 11 30.51 1033 10 16 0.00 0.00
8:52 pm 20:52 Mostly Cloudy 33 0.6 19 -7.2 56 56 SSE 9 15 30.50 1033 10 16 0.00 0.00
9:52 pm 21:52 Mostly Cloudy 33 0.6 20 -6.7 58 58 S 13 20 30.49 1033 10 16 0.00 0.00
10:52 pm 22:52 Cloudy 34 1.1 19 -7.2 54 54 S 10 17 30.46 1032 10 16 0.00 0.00
11:52 pm 23:52 Cloudy 34 1.1 20 -6.7 56 56 S 9 15 30.44 1031 10 16 0.00 0.00

Powered by AerisWeather